Location: Capuchinos
(10.5473°N, 66.8878°W)
Time: 02:03:32
(UTC+00:00)

Daily predictions for brighter satellites

Satellite Brightness Start Highest point End
(mag) Time Altitude Azimuth Time Altitude Azimuth Time Altitude Azimuth
Cosmos 1408 Rocket 4.4 00:05:31 10° NNW 00:09:48 50° W 00:14:01 11° SSW
Geosat 4.0 00:10:36 46° ESE 00:11:51 61° ENE 00:16:47 10° NNW
ARGOS 4.1 00:06:48 10° S 00:11:54 46° WSW 00:16:59 10° NNW
USA 267 4.3 00:15:46 25° ENE 00:17:08 27° NE 00:22:26 10° N
OBJECT-B 3.6 00:22:48 11° NNE 00:22:48 11° NNE 00:22:57 10° N
CZ-2C R/B 2.0 00:17:12 10° WSW 00:21:08 47° NW 00:22:08 37° N
ASTRO E2 4.3 00:18:24 10° NNW 00:21:20 24° NNE 00:21:20 24° NNE
Cosmos 1777 Rocket 4.1 00:22:43 10° SSW 00:27:53 74° WNW 00:33:04 10° N
Ariane H10-3 4.0 00:25:20 10° W 00:30:09 66° S 06:48:10 10° ESE
Helios 1A Rocket 3.1 00:30:26 68° WNW 00:30:26 68° WNW 00:34:21 10° NNW
Meteor 1-26 Rocket 4.2 00:26:47 23° S 00:30:34 89° W 00:36:13 10° N
CZ-4 R/B 4.4 00:32:56 10° WSW 00:34:17 11° W 00:35:40 10° W
ISS -0.5 00:33:32 10° W 00:35:24 14° NW 00:37:17 10° NNW
CZ-3B R/B 4.5 00:24:05 10° SW 00:35:38 30° SSE 00:35:38 30° SSE
ARIANE 5 DEB (SYLDA) 4.2 00:37:00 10° WSW 00:41:00 25° SSW 00:41:00 25° SSW
GEOS 3 Rocket 3.6 00:43:16 84° N 00:43:16 84° N 00:48:28 10° NNW
Cosmos 2278 Rocket 3.2 00:45:59 10° SW 00:51:20 44° WNW 00:56:42 10° N
ASC 2 Rocket 3.9 00:47:56 10° WNW 00:54:16 67° W 00:54:16 67° W
ATLAS 5 CENTAUR R/B 3.9 01:16:19 10° N 01:19:47 32° N 01:19:47 32° N
Atlas Centaur 2 4.4 06:45:56 29° NNE 06:45:56 29° NNE 06:49:22 10° NE
SL-16 R/B 3.9 07:26:48 26° N 07:26:48 26° N 07:29:07 10° NNE
NOSS 3-2 (C) 4.4 07:37:14 34° NNE 07:37:14 34° NNE 07:40:18 10° NNE
CZ-2C R/B 3.8 07:31:05 10° NNE 07:34:45 37° ENE 07:34:45 37° ENE
ARIANE 5 DEB (SYLDA) 4.3 07:39:51 37° SSE 07:39:51 37° SSE 07:43:05 10° ESE
ALOS 4.3 07:38:27 10° NE 07:42:06 23° E 07:42:33 22° ESE
Ariane H10+ 4.5 07:49:56 34° S 07:49:56 34° S 07:55:28 10° SE
Cosmos 2322 Rocket 3.3 07:52:58 35° NNW 07:52:58 35° NNW 07:56:19 10° N
Cosmos 1891 Rocket 4.3 08:00:42 10° N 08:06:42 87° E 08:08:26 50° S
Meteor 2-10 Rocket 3.6 08:01:35 10° N 08:07:03 76° E 08:08:06 57° SSE
Meteor 1-21 Rocket 4.0 08:08:33 83° W 08:08:34 83° W 08:14:09 10° N
Tsikada Rocket 4.0 08:07:55 50° S 08:09:47 88° E 08:16:11 10° N
ADEOS Rocket 4.3 08:12:28 31° WNW 08:12:28 31° WNW 08:16:50 10° NNW
Cosmos 2360 Rocket 2.1 08:13:37 67° WNW 08:13:37 67° WNW 08:19:07 10° N
Cosmos 2263 Rocket 3.7 08:08:29 10° N 08:13:37 35° ENE 08:18:43 10° SE
Cosmos 2219 Rocket 3.6 08:10:02 16° SSE 08:13:52 33° ESE 08:18:52 10° NE
Cosmos 2058 Rocket 4.4 08:12:30 10° NNE 08:16:43 40° E 08:20:55 10° SSE
Cosmos 1726 Rocket 3.5 08:15:07 10° N 08:19:17 79° NNE 08:19:17 79° NNE
ARIANE 5 R/B 4.3 08:28:05 13° SE 08:28:05 13° SE 08:28:57 10° SE
Cosmos 839 Rocket 4.4 08:20:51 10° NNW 08:29:38 78° WSW 08:36:31 10° SSE
FUSE 4.2 08:28:39 47° SSW 08:29:42 56° SSE 08:34:57 10° ENE
Cosmos 1441 Rocket 3.2 08:29:56 71° SSE 08:30:16 78° E 08:34:11 10° N
Cosmos 1602 Rocket 3.8 08:28:41 34° SSE 08:30:27 66° E 08:34:44 10° NNE
CENTAUR R/B 3.9 08:34:15 16° NW 08:34:15 16° NW 08:37:06 10° NNW
Cosmos 1302 Rocket 4.0 08:35:28 47° SW 08:36:43 60° WNW 08:41:55 10° N
SWIFT 4.0 08:36:05 22° NW 08:37:23 25° N 08:40:55 10° NE
Cosmos 676 Rocket 4.1 08:32:36 10° NNW 08:37:43 52° WSW 08:40:50 23° SSW
Cosmos 1626 Rocket 3.5 08:38:11 56° WSW 08:38:31 58° W 08:42:48 10° N
Cosmos 1464 Rocket 4.1 08:32:56 10° NNW 08:38:54 51° W 08:42:59 21° SSW
GPS 2-12 Rocket1 2.9 08:38:52 56° SW 08:39:41 73° SSE 08:44:06 10° ENE
CZ-2C R/B 3.1 08:41:49 10° NNW 08:44:22 22° NNE 08:46:58 10° E
Cosmos 2034 Rocket 3.9 08:43:01 10° NNW 08:49:13 64° W 08:55:21 10° S
Cosmos 2322 3.6 08:47:45 23° SSW 08:51:22 72° WNW 08:57:00 10° N
Palapa 6 Rocket 4.2 08:50:24 21° S 08:51:46 26° SSE 08:55:26 10° E
Cosmos 2227 4.2 08:49:19 10° NNW 08:54:55 85° ENE 09:00:32 10° SSE
ATLAS CENTAUR R/B 2.8 08:55:58 31° WSW 08:57:41 48° NW 09:06:01 10° NNE
ASTEX 1 3.8 08:54:13 10° SSE 08:59:07 65° E 09:04:01 10° N
USA 234 3.7 08:54:46 10° NNE 09:00:56 46° NW 09:05:11 20° WSW
Tianhe-1 1.0 09:02:22 30° WNW 09:03:39 57° SW 09:06:42 10° SE
Aureole 1 Rocket 4.1 08:59:57 10° N 09:04:22 58° E 09:10:12 10° SSE
ARIANE 5 DEB (SYLDA) 4.3 09:03:07 20° SW 09:06:08 31° S 09:12:00 10° ESE
Cosmos 2333 Rocket 2.4 09:02:16 18° SW 09:06:25 52° WNW 09:12:01 10° N
ATLAS 3B R/B 2.7 09:01:24 10° SSW 09:07:55 77° ESE 09:14:25 10° NNE
Genesis I 3.2 09:05:39 14° SSW 09:08:44 75° ESE 09:12:30 10° NNE
CZ-2C R/B 4.4 09:12:00 10° NW 09:13:47 12° WNW 09:14:09 12° WNW
GPS 2-15 Rocket1 4.5 09:09:52 10° NW 09:14:07 34° N 09:18:21 10° ENE
Cosmos 389 Rocket 3.5 09:14:18 10° NW 09:17:08 25° W 09:19:15 14° SW
CZ-4B R/B 3.9 09:13:47 10° N 09:18:06 75° WNW 09:22:13 10° SSW
ALOS 3.8 09:16:06 10° NNW 09:19:14 18° WNW 09:21:02 15° WSW
Cosmos 2237 Rocket 3.8 09:15:25 10° S 09:20:33 36° ESE 09:25:39 10° NE
Cosmos 1812 Rocket 4.1 09:17:39 10° N 09:21:56 62° E 09:26:12 10° SSE
Hubble Space Telescope 0.9 09:19:06 16° SW 09:22:18 66° SSE 09:26:23 10° ENE
Cosmos 1455 3.8 09:20:07 10° NW 09:22:34 16° W 09:23:39 15° WSW
Cosmos 1892 2.8 09:19:21 10° S 09:23:05 76° E 09:26:49 10° N
H-2A R/B 3.2 09:22:14 10° NNE 09:25:59 64° E 09:29:47 10° S
CZ-3 Stage 3 3.0 09:24:03 12° W 09:27:07 24° NW 09:29:17 10° NNE
Cosmos 1850 Rocket 4.3 09:23:23 10° NNW 09:28:28 46° WSW 09:33:30 10° S
Milstar 3 4.4 09:25:10 12° WSW 09:30:54 27° SSW 09:40:05 10° SSE
CZ-4B R/B 3.7 09:27:22 10° NNE 09:31:08 52° ESE 09:35:06 10° S
Meteor 1-4 Rocket 4.5 09:28:40 10° NNE 09:32:02 35° E 09:35:22 10° SSE
IUS-15 SRM-1 2.5 09:29:46 12° WSW 09:32:58 62° NNW 09:34:49 10° NE
ARIANE 5 DEB (SYLDA 5A) 4.3 09:36:16 10° S 09:37:28 12° SSE 09:39:08 10° SE
MOS 1 Rocket 3.6 09:32:39 10° S 09:38:01 82° WSW 09:43:08 10° NNW
Meteor 1-31 Rocket 3.6 09:37:30 10° NNW 09:41:01 32° WNW 09:44:31 10° SW
Cosmos 2279 Rocket 4.1 09:39:22 10° N 09:45:38 87° W 09:51:54 10° S
